Flag for France Weather past 2 weeks in Brest, France

Now
54 °F

Passing clouds.


Feels Like: N/A
Forecast: 44 / 62 °F
Wind: N/A

Location: Brest Airport

Current Time: Apr 19, 2015 at 7:47:54 PM

Latest Report: Apr 19, 2015 at 7:00 PM


Visibility: N/A

Pressure: 30.09 "Hg

Humidity: 67%

Dew point: 43 °F

Location of BrestLocation

Historic Weather in Brest — Graph

°F

Brest temperature yesterday

Maximum temperature yesterday: 55 °F (at 5:30 PM)
Minimum temperature yesterday: 48 °F (at 2:00 AM)
Average temperature yesterday: 50 °F

Past Weeks' High & Low Weather Summary

 TemperatureHumidityPressure
High82 °F (Apr 15, 3:00 PM)100% (Apr 7, 3:30 AM)30.54 "Hg (Apr 7, 3:30 AM)
Low36 °F (Apr 6, 7:30 AM)21% (Apr 8, 3:00 PM)29.83 "Hg (Apr 16, 7:00 AM)
Average53 °F70%30.20 "Hg
* Reported Apr 4 6:00 PM — Apr 19 6:30 PM, Brest, Weather by CustomWeather, © 2015

Note: Actual official high and low records may vary slightly from our data, if they occured in-between our weather recording intervals... More about our weather records

Advertising

Brest weather history for previous 24 hours

 ConditionsComfort  
Time TempWeatherWind HumidityBarometerVisibility
6:30 PM
Sun, Apr 19
52 °FSunny.N/A72%30.09 "Hg10 mi
6:00 PM54 °FPassing clouds.N/A67%30.09 "HgN/A
5:30 PM55 °FPassing clouds.N/A63%30.09 "HgN/A
5:00 PM55 °FPassing clouds.N/A63%30.09 "HgN/A
4:30 PM55 °FPassing clouds.N/A67%30.09 "HgN/A
4:00 PM55 °FPassing clouds.N/A55%30.09 "HgN/A
3:00 PM57 °FPassing clouds.N/A59%30.09 "HgN/A
2:30 PM55 °FPassing clouds.N/A67%30.09 "HgN/A
2:00 PM57 °FPassing clouds.N/A67%30.09 "HgN/A
1:30 PM55 °FPassing clouds.N/A67%30.09 "HgN/A
1:00 PM55 °FPassing clouds.N/A67%30.09 "HgN/A
12:30 PM55 °FPassing clouds.N/A67%30.12 "HgN/A
12:00 PM55 °FPassing clouds.N/A63%30.12 "HgN/A
11:30 AM55 °FPassing clouds.12 mph63%30.12 "HgN/A
11:00 AM54 °FPassing clouds.14 mph67%30.12 "HgN/A
10:30 AM52 °FPassing clouds.15 mph72%30.12 "HgN/A
10:00 AM50 °FPassing clouds.14 mph76%30.12 "HgN/A
9:30 AM48 °FSunny.15 mph82%30.12 "Hg10 mi
9:00 AM46 °FSunny.10 mph87%30.12 "Hg10 mi
8:30 AM45 °FSunny.8 mph87%30.09 "Hg10 mi
8:00 AM43 °FClear.7 mph93%30.09 "Hg10 mi
7:30 AM43 °FClear.9 mph93%30.09 "Hg10 mi
7:00 AM43 °FClear.8 mph93%30.09 "Hg10 mi
6:30 AM45 °FClear.9 mph87%30.09 "Hg10 mi
6:00 AM45 °FClear.12 mph87%30.09 "Hg10 mi
5:30 AM45 °FClear.13 mph87%30.09 "Hg10 mi
5:00 AM45 °FClear.12 mph87%30.12 "Hg10 mi
4:30 AM45 °FClear.10 mph87%30.12 "Hg10 mi
4:00 AM45 °FClear.10 mph87%30.12 "Hg10 mi
3:30 AM45 °FClear.10 mph87%30.09 "Hg10 mi
3:00 AM46 °FClear.12 mph82%30.09 "Hg10 mi
2:30 AM46 °FClear.14 mph82%30.09 "Hg10 mi
2:00 AM46 °FClear.17 mph87%30.09 "Hg10 mi
1:36 AM46 °FClear.15 mph87%30.09 "Hg10 mi
1:00 AM46 °FClear.16 mph82%30.09 "Hg10 mi
12:30 AM46 °FClear.14 mph82%30.09 "Hg10 mi
12:00 AM48 °FClear.14 mph76%30.09 "Hg10 mi
11:00 PM
Sat, Apr 18
48 °FClear.17 mph76%30.09 "Hg10 mi
10:30 PM48 °FClear.16 mph76%30.09 "Hg10 mi
10:00 PM50 °FSunny.15 mph71%30.09 "Hg10 mi
9:30 PM50 °FSunny.16 mph71%30.07 "Hg10 mi
9:00 PM52 °FScattered clouds.13 mph72%30.07 "HgN/A
8:30 PM52 °FScattered clouds.13 mph77%30.07 "HgN/A
8:00 PM54 °FBroken clouds.13 mph77%30.04 "HgN/A
7:30 PM54 °FBroken clouds.12 mph72%30.04 "HgN/A
7:00 PM55 °FBroken clouds.12 mph72%30.04 "HgN/A
Weather by CustomWeather, © 2015

See weather overviewHow to use our weather pages